City of Derry Airport

Jump to: basic info | weather | frequencies | runways | comments

Related pages: nearby airports | nearby navaids | notams | map

Basic information (top)

Codes: LDY EGAE
Location: lon 55.042801, lat -7.161110, elev 22 ft / 7 m msl
Status: medium_airport
Scheduled airline service: yes
Links: Wikipedia Mobile

Weather (top)

Current conditions (rec'd 2014/10/22 14:50Z):

EGAE 221450Z 23018KT 9999 BKN025 13/10 Q1016

Airport forecast for Belfast International Airport 40nm (74km) SE (rec'd 2014/10/22 12:15Z):

TAF TAF EGAA 221102Z 2212/2312 24012KT 9999 -RA SCT012 BKN025 PROB30 
      TEMPO 2212/2214 4000 RADZ BKN008 PROB30 
      TEMPO 2218/2224 BKN012 PROB40 
      TEMPO 2300/2312 7000 -DZ RA BKN008

Frequencies (top)

Verify before use: may be inaccurate or out of date.

APP: 123.625 MHz (APP)
TWR: 134.15 MHz (TWR)

Runways (top)

02/20: 3,955 x 148 ft (1,205 x 45 m) — paved — lighted — threshold 02 displaced 435 ft (133 m)

08/26: 6,076 x 147 ft (1,852 x 45 m) — paved — lighted — threshold 08 displaced 433 ft (132 m)

Latest comments (top)

Excellant airport: You have full services ils , fuel car ... [read]

More... (top)

See also NOTAMs and nearby airports and navaids, or visit the City of Derry Airport page at the main OurAirports website..